| time (UTC) | temp F | wind direction | speed knots | gust knots | rain 1hr in | rain 24hr in | rain mn in | humidity % | barometer mb |
| 20260906161842 | 93 | 69 | 1.7 | 3.5 | 0.00 | 1.19 | 0.00 | 63 | 1010.3 |
| 20260906160345 | 91 | 284 | 1.7 | 4.3 | 0.00 | 1.19 | 0.00 | 65 | 1010.3 |
| 20260906154832 | 90 | 29 | 1.7 | 3.5 | 0.00 | 1.19 | 0.00 | 68 | 1010.2 |
| 20260906153348 | 89 | 55 | 1.7 | 4.3 | 0.00 | 1.19 | 0.00 | 69 | 1010.2 |
| 20260906151851 | 88 | 40 | 2.6 | 4.3 | 0.00 | 1.19 | 0.00 | 71 | 1010.2 |
| 20260906150332 | 86 | 26 | 0.9 | 2.6 | 0.00 | 1.19 | 0.00 | 74 | 1010.3 |
| 20260906144835 | 85 | 42 | 0.9 | 3.5 | 0.00 | 1.19 | 0.00 | 79 | 1010.3 |
| 20260906143325 | 83 | 305 | 0.0 | 2.6 | 0.00 | 1.19 | 0.00 | 79 | 1010.4 |
| 20260906141832 | 81 | 241 | 0.0 | 1.7 | 0.00 | 1.19 | 0.00 | 85 | 1010.6 |
| 20260906140356 | 79 | 26 | 0.9 | 2.6 | 0.00 | 1.19 | 0.00 | 93 | 1010.7 |
| 20260906134837 | 77 | 114 | 0.9 | 2.6 | 0.00 | 1.19 | 0.00 | 95 | 1010.5 |
| 20260906133325 | 76 | 32 | 1.7 | 2.6 | 0.00 | 1.19 | 0.00 | 96 | 1010.6 |
| 20260906131850 | 75 | 62 | 0.0 | 1.7 | 0.00 | 1.19 | 0.00 | 97 | 1010.6 |
| 20260906130332 | 74 | 62 | 0.0 | 1.7 | 0.00 | 1.19 | 0.00 | 97 | 1010.6 |
| 20260906124827 | 73 | 71 | 0.9 | 1.7 | 0.00 | 1.19 | 0.00 | 97 | 1010.6 |
| 20260906123330 | 72 | 71 | 0.0 | 0.0 | 0.00 | 1.19 | 0.00 | 97 | 1010.5 |
| 20260906121828 | 71 | 77 | 0.0 | 0.0 | 0.00 | 1.19 | 0.00 | 97 | 1010.4 |
| 20260906120325 | 70 | 77 | 0.0 | 0.0 | 0.00 | 1.19 | 0.00 | 96 | 1010.3 |
| 20260906114832 | 70 | 77 | 0.0 | 0.0 | 0.00 | 1.19 | 0.00 | 96 | 1010.2 |
| 20260906113336 | 70 | 77 | 0.0 | 0.0 | 0.00 | 1.19 | 0.00 | 95 | 1009.9 |
| 20260906111825 | 70 | 77 | 0.0 | 0.0 | 0.00 | 1.19 | 0.00 | 95 | 1009.7 |
| 20260906110331 | 70 | 77 | 0.0 | 0.0 | 0.00 | 1.19 | 0.00 | 95 | 1009.6 |
| 20260906104837 | 70 | 77 | 0.0 | 0.0 | 0.00 | 1.19 | 0.00 | 95 | 1009.2 |
| 20260906103326 | 70 | 77 | 0.0 | 0.0 | 0.00 | 1.19 | 0.00 | 95 | 1009.3 |
| 20260906101831 | 70 | 77 | 0.0 | 0.0 | 0.00 | 1.19 | 0.00 | 95 | 1009.4 |
| 20260906100328 | 70 | 119 | 0.0 | 0.0 | 0.00 | 1.19 | 0.00 | 95 | 1009.2 |
| 20260906094827 | 70 | 118 | 0.0 | 1.7 | 0.00 | 1.19 | 0.00 | 95 | 1009.3 |
| 20260906093344 | 70 | 128 | 0.0 | 0.9 | 0.00 | 1.19 | 0.00 | 95 | 1009.4 |
| 20260906091850 | 70 | 80 | 0.0 | 0.0 | 0.00 | 1.19 | 0.00 | 95 | 1009.5 |
| 20260906090334 | 70 | 203 | 0.0 | 1.7 | 0.00 | 1.19 | 0.00 | 95 | 1009.4 |
| 20260906084858 | 70 | 213 | 0.0 | 1.7 | 0.00 | 1.19 | 0.00 | 95 | 1009.4 |
| 20260906083343 | 70 | 121 | 0.0 | 1.7 | 0.00 | 1.19 | 0.00 | 94 | 1009.2 |
| 20260906081830 | 70 | 216 | 0.0 | 2.6 | 0.00 | 1.19 | 0.00 | 94 | 1009.0 |
| 20260906080326 | 70 | 164 | 0.0 | 1.7 | 0.00 | 1.19 | 0.00 | 94 | 1009.4 |
| 20260906074830 | 70 | 133 | 0.0 | 1.7 | 0.00 | 1.19 | 0.00 | 94 | 1009.3 |
| 20260906073328 | 70 | 200 | 0.0 | 1.7 | 0.00 | 1.19 | 0.00 | 94 | 1009.5 |
| 20260906071825 | 71 | 172 | 0.0 | 1.7 | 0.00 | 1.19 | 0.00 | 94 | 1009.8 |
| 20260906070331 | 71 | 149 | 1.7 | 3.5 | 0.00 | 1.19 | 0.00 | 94 | 1010.0 |
| 20260906064826 | 71 | 61 | 0.9 | 2.6 | 0.00 | 1.19 | 0.00 | 93 | 1010.2 |
| 20260906063331 | 71 | 78 | 0.0 | 2.6 | 0.37 | 1.19 | 0.00 | 93 | 1010.0 |
| 20260906061827 | 71 | 60 | 0.9 | 3.5 | 0.50 | 1.19 | 0.00 | 92 | 1009.8 |
| 20260906060329 | 71 | 184 | 0.0 | 4.3 | 0.50 | 1.19 | 0.00 | 92 | 1009.8 |
| 20260906054833 | 72 | 235 | 3.5 | 6.1 | 0.50 | 1.19 | 1.19 | 92 | 1010.3 |
| 20260906053357 | 72 | 22 | 2.6 | 10.4 | 0.61 | 0.82 | 0.82 | 91 | 1011.0 |
| 20260906051841 | 73 | 66 | 1.7 | 8.7 | 0.69 | 0.69 | 0.69 | 90 | 1010.5 |
| 20260906050329 | 74 | 141 | 4.3 | 12.2 | 0.69 | 0.69 | 0.69 | 90 | 1011.1 |
| 20260906044833 | 75 | 57 | 1.7 | 10.4 | 0.69 | 0.69 | 0.69 | 85 | 1010.5 |
| 20260906043338 | 79 | 71 | 6.1 | 11.3 | 0.18 | 0.18 | 0.21 | 80 | 1011.1 |
| 20260906041840 | 80 | 47 | 1.7 | 12.2 | 0.00 | 0.00 | 0.00 | 76 | 1010.5 |
| 20260906040328 | 80 | 78 | 4.3 | 11.3 | 0.00 | 0.00 | 0.00 | 74 | 1009.7 |
| 20260906034833 | 79 | 82 | 2.6 | 10.4 | 0.00 | 0.00 | 0.00 | 74 | 1009.7 |
| 20260906033338 | 78 | 28 | 2.6 | 7.8 | 0.00 | 0.00 | 0.00 | 85 | 1010.1 |
| 20260906031842 | 78 | 336 | 0.9 | 1.7 | 0.00 | 0.00 | 0.00 | 83 | 1009.6 |
| 20260906030345 | 78 | 242 | 0.0 | 2.6 | 0.00 | 0.00 | 0.00 | 82 | 1009.2 |
| 20260906024831 | 79 | 229 | 0.9 | 2.6 | 0.00 | 0.00 | 0.00 | 80 | 1009.1 |
| 20260906023329 | 80 | 211 | 1.7 | 2.6 | 0.00 | 0.00 | 0.00 | 80 | 1008.9 |
| 20260906021847 | 80 | 211 | 0.9 | 3.5 | 0.00 | 0.00 | 0.00 | 76 | 1008.6 |
| 20260906020331 | 81 | 53 | 0.0 | 1.7 | 0.00 | 0.00 | 0.00 | 71 | 1008.3 |
| 20260906014839 | 82 | 56 | 0.9 | 3.5 | 0.00 | 0.00 | 0.00 | 71 | 1008.1 |
| 20260906013325 | 82 | 201 | 0.0 | 1.7 | 0.00 | 0.00 | 0.00 | 71 | 1008.2 |
| 20260906011848 | 82 | 182 | 0.9 | 1.7 | 0.00 | 0.00 | 0.00 | 70 | 1008.3 |
| 20260906010334 | 83 | 243 | 0.9 | 6.1 | 0.00 | 0.00 | 0.00 | 70 | 1008.6 |
| 20260906004859 | 82 | 111 | 1.7 | 13.0 | 0.00 | 0.00 | 0.00 | 70 | 1009.0 |
| 20260906003324 | 83 | 208 | 7.8 | 18.2 | 0.00 | 0.00 | 0.00 | 64 | 1008.7 |
| 20260906001829 | 87 | 246 | 6.1 | 14.8 | 0.00 | 0.00 | 0.00 | 61 | 1008.6 |
| 20260906000326 | 92 | 280 | 1.7 | 5.2 | 0.00 | 0.00 | 0.00 | 53 | 1008.5 |
| 20260905234843 | 94 | 109 | 2.6 | 5.2 | 0.00 | 0.00 | 0.00 | 50 | 1008.1 |
| 20260905233345 | 96 | 60 | 1.7 | 4.3 | 0.00 | 0.00 | 0.00 | 48 | 1008.1 |
| 20260905231832 | 100 | 159 | 1.7 | 7.8 | 0.00 | 0.00 | 0.00 | 46 | 1007.8 |
| 20260905230337 | 103 | 221 | 0.9 | 2.6 | 0.00 | 0.00 | 0.00 | 40 | 1007.7 |
| 20260905224843 | 102 | 263 | 0.9 | 3.5 | 0.00 | 0.00 | 0.00 | 40 | 1007.7 |
| 20260905223332 | 102 | 198 | 2.6 | 5.2 | 0.00 | 0.00 | 0.00 | 40 | 1007.7 |
| 20260905221831 | 103 | 242 | 1.7 | 5.2 | 0.00 | 0.00 | 0.00 | 40 | 1007.6 |
| 20260905220338 | 103 | 202 | 3.5 | 6.1 | 0.00 | 0.00 | 0.00 | 39 | 1007.7 |
| 20260905214842 | 104 | 229 | 2.6 | 7.0 | 0.00 | 0.00 | 0.00 | 39 | 1007.8 |
| 20260905213325 | 104 | 210 | 1.7 | 6.1 | 0.00 | 0.00 | 0.00 | 39 | 1007.7 |
| 20260905211830 | 105 | 340 | 1.7 | 7.0 | 0.00 | 0.00 | 0.00 | 38 | 1007.9 |
| 20260905210329 | 106 | 350 | 1.7 | 6.1 | 0.00 | 0.00 | 0.00 | 38 | 1008.0 |
| 20260905204829 | 106 | 327 | 1.7 | 6.1 | 0.00 | 0.00 | 0.00 | 37 | 1008.1 |
| 20260905203324 | 105 | 32 | 0.9 | 4.3 | 0.00 | 0.00 | 0.00 | 38 | 1008.3 |
| 20260905201825 | 103 | 72 | 1.7 | 6.1 | 0.00 | 0.00 | 0.00 | 41 | 1008.3 |
| 20260905200331 | 103 | 39 | 0.9 | 5.2 | 0.00 | 0.00 | 0.00 | 41 | 1008.8 |
| 20260905194830 | 102 | 327 | 0.9 | 6.1 | 0.00 | 0.00 | 0.00 | 42 | 1009.1 |
| 20260905193348 | 103 | 327 | 3.5 | 6.1 | 0.00 | 0.00 | 0.00 | 42 | 1009.2 |
| 20260905191827 | 104 | 229 | 1.7 | 3.5 | 0.00 | 0.00 | 0.00 | 42 | 1009.5 |
| 20260905190331 | 104 | 335 | 2.6 | 6.1 | 0.00 | 0.00 | 0.00 | 41 | 1009.6 |
| 20260905184828 | 103 | 234 | 0.9 | 5.2 | 0.00 | 0.00 | 0.00 | 42 | 1009.7 |
| 20260905183347 | 102 | 34 | 1.7 | 5.2 | 0.00 | 0.00 | 0.00 | 46 | 1010.1 |
| 20260905181830 | 101 | 27 | 0.9 | 4.3 | 0.00 | 0.00 | 0.00 | 47 | 1010.3 |
| 20260905180338 | 102 | 14 | 3.5 | 7.8 | 0.00 | 0.00 | 0.00 | 45 | 1010.5 |
| 20260905174840 | 102 | 132 | 2.6 | 4.3 | 0.00 | 0.00 | 0.00 | 45 | 1010.7 |
| 20260905173325 | 101 | 343 | 0.9 | 5.2 | 0.00 | 0.00 | 0.00 | 47 | 1010.7 |
| 20260905171849 | 101 | 329 | 0.9 | 5.2 | 0.00 | 0.00 | 0.00 | 49 | 1010.8 |
| 20260905170329 | 100 | 333 | 0.9 | 4.3 | 0.00 | 0.00 | 0.00 | 47 | 1011.0 |
| 20260905164826 | 99 | 19 | 0.9 | 4.3 | 0.00 | 0.00 | 0.00 | 51 | 1011.2 |
| 20260905163330 | 98 | 60 | 1.7 | 4.3 | 0.00 | 0.00 | 0.00 | 53 | 1011.4 |